Hickam AFB, HI

11:59 AM HST on February 23, 2017 (GMT -1000)
Honolulu International

Weather History for PHNL - October, 2013

Change the Weather History Date:

Tuesday, October 15, 2013

  Actual Average Record
Temperature  
Mean Temperature 78 °F 80 °F  
Max Temperature 86 °F 87 °F 92 °F (1995)
Min Temperature 69 °F 74 °F 68 °F (1999)
Degree Days  
Heating Degree Days 0 0  
Month to date heating degree days 0 0  
Since 1 July heating degree days 0 0  
Cooling Degree Days 13 15  
Month to date cooling degree days 218 234  
Year to date cooling degree days 3555 3713  
Growing Degree Days 26 (Base 50)    
Moisture  
Dew Point 67 °F    
Average Humidity 71    
Maximum Humidity 90    
Minimum Humidity 51    
Precipitation  
Precipitation 0.00 in 0.06 in 1.20 in (2006)
Month to date precipitation 0.18 0.73  
Year to date precipitation 10.59 10.33  
Snow  
Snow 0.00 in - - ()
Month to date snowfall 0.0  
Since 1 July snowfall 0.0  
Since 1 September snowfall 0.0  
Snow Depth 0.00 in    
Sea Level Pressure  
Sea Level Pressure 29.95 in    
Wind  
Wind Speed 5 mph (North)    
Max Wind Speed 15 mph    
Max Gust Speed 18 mph    
Visibility 10 miles    
Events      
T = Trace of Precipitation, MM = Missing Value Source: NWS Daily Summary

Daily Weather History Graph

Daily Weather History Graph

Search for Another Location

Airport or City:

Trip Planner

Search our weather history database for the weather conditions in past years. The results will help you decide how hot, cold, wet, or windy it might be!

Date:

Astronomy

Oct. 15, 2013 Rise Set
Actual Time 6:27 AM HST 6:06 PM HST
Civil Twilight 6:05 AM HST 6:29 PM HST
Nautical Twilight 5:39 AM HST 6:55 PM HST
Astronomical Twilight 5:13 AM HST 7:20 PM HST
Moon 4:00 PM HST (10/15) 3:25 AM HST (10/15)
Length of Visible Light 12h 24m
Length of Day
11h 39m
Waxing Gibbous, 89% of the Moon is Illuminated
Oct 15
Waxing Gibbous
Oct 18
Full
Oct 26
Last Quarter
Nov 3
New
Nov 9
First Quarter

Hourly Weather History & Observations

Time (HST) Temp. Heat Index Dew Point Humidity Pressure Visibility Wind Dir Wind Speed Gust Speed Precip Events Conditions
12:53 AM 73.0 °F - 66.9 °F 81% 29.96 in 10.0 mi NW 5.8 mph - N/A   Scattered Clouds
1:53 AM 72.0 °F - 66.9 °F 84% 29.95 in 10.0 mi NNW 4.6 mph - N/A   Partly Cloudy
2:53 AM 70.0 °F - 66.9 °F 90% 29.94 in 10.0 mi North 3.5 mph - N/A   Partly Cloudy
3:53 AM 70.0 °F - 66.9 °F 90% 29.93 in 10.0 mi WNW 4.6 mph - N/A   Partly Cloudy
4:53 AM 71.1 °F - 66.9 °F 87% 29.94 in 10.0 mi NNW 4.6 mph - N/A   Partly Cloudy
5:53 AM 70.0 °F - 66.9 °F 90% 29.94 in 10.0 mi NNW 4.6 mph - N/A   Partly Cloudy
6:53 AM 71.1 °F - 66.9 °F 87% 29.95 in 10.0 mi North 4.6 mph - N/A   Scattered Clouds
7:53 AM 75.9 °F - 68.0 °F 76% 29.97 in 10.0 mi North 3.5 mph - N/A   Scattered Clouds
8:53 AM 79.0 °F - 66.9 °F 66% 29.99 in 10.0 mi Calm Calm - N/A   Scattered Clouds
9:53 AM 81.0 °F 83.3 °F 66.9 °F 62% 29.98 in 10.0 mi Variable 3.5 mph - N/A   Scattered Clouds
10:53 AM 82.9 °F 85.0 °F 66.0 °F 56% 29.96 in 10.0 mi Variable 4.6 mph - N/A   Scattered Clouds
11:53 AM 82.9 °F 85.4 °F 66.9 °F 58% 29.94 in 10.0 mi WSW 3.5 mph - N/A   Scattered Clouds
12:53 PM 84.0 °F 85.8 °F 64.9 °F 53% 29.92 in 10.0 mi NNE 9.2 mph - N/A   Scattered Clouds
1:53 PM 82.0 °F 85.5 °F 69.1 °F 65% 29.90 in 10.0 mi West 9.2 mph - N/A   Scattered Clouds
2:53 PM 82.9 °F 84.6 °F 64.9 °F 54% 29.89 in 10.0 mi NNE 8.1 mph - N/A   Scattered Clouds
3:53 PM 82.9 °F 84.6 °F 64.9 °F 54% 29.89 in 10.0 mi NNE 11.5 mph - N/A   Scattered Clouds
4:53 PM 82.9 °F 85.0 °F 66.0 °F 56% 29.91 in 10.0 mi NE 15.0 mph - N/A   Scattered Clouds
5:53 PM 80.1 °F 82.3 °F 66.9 °F 64% 29.93 in 10.0 mi East 12.7 mph 21.9 mph N/A   Scattered Clouds
6:53 PM 79.0 °F - 66.9 °F 66% 29.95 in 10.0 mi ENE 5.8 mph - N/A   Scattered Clouds
7:53 PM 78.1 °F - 66.9 °F 68% 29.96 in 10.0 mi ENE 9.2 mph - N/A   Scattered Clouds
8:53 PM 78.1 °F - 66.9 °F 68% 29.99 in 10.0 mi East 9.2 mph - N/A   Scattered Clouds
9:53 PM 77.0 °F - 68.0 °F 74% 29.99 in 10.0 mi ENE 8.1 mph - N/A   Scattered Clouds
10:53 PM 75.9 °F - 66.9 °F 74% 29.98 in 10.0 mi Calm Calm - N/A   Partly Cloudy
11:53 PM 73.9 °F - 68.0 °F 82% 29.98 in 10.0 mi NNE 4.6 mph - N/A   Mostly Cloudy